Wind_Speed
24 26 26 27 27 27 28 28 28 28 28 27 28 28 28 29 30 30 29 28 28 27 28 28 28 28 28 28 27 26 27 26 26 27 26 26 26 26 26 26 27 27 27
24 25 26 27 27 27 27 27 27 27 27 27 27 27 27 26 28 29 29 29 28 27 27 27 27 27 28 30 30 28 28 28 27 27 28 28 27 27 28 28 29 29 29
23 24 25 25 25 26 27 26 25 25 26 27 26 26 27 26 26 27 28 28 27 26 26 27 27 28 29 30 30 29 30 30 29 29 29 29 29 29 30 29 29 30 31
24 24 25 24 25 26 27 26 25 25 26 26 27 27 26 25 25 26 27 28 28 27 26 26 27 29 29 30 30 31 31 31 31 30 30 30 30 30 30 31 31 31 31
25 25 25 25 25 26 26 26 25 26 26 26 27 26 25 25 25 25 26 25 25 26 26 26 26 28 30 30 30 29 29 29 29 29 29 30 31 31 31 31 31 32 32
24 24 24 25 25 26 26 25 25 26 26 26 26 25 25 25 25 25 24 24 24 25 25 26 26 28 29 29 30 29 30 30 30 30 31 31 30 31 32 32 33 33 33
21 21 22 23 23 24 25 24 25 25 25 26 26 25 25 25 25 25 24 24 25 26 26 27 27 28 29 30 31 30 30 30 30 31 31 31 31 32 33 33 33 34 35
20 20 20 21 22 22 22 23 24 24 25 26 26 27 26 26 26 26 25 25 26 26 26 27 28 28 28 29 29 29 30 30 30 31 31 32 34 33 34 34 35 35 36
19 19 19 20 21 21 21 22 23 24 25 25 26 27 25 25 25 25 25 25 25 25 25 26 28 28 27 28 29 29 29 29 31 31 32 33 33 34 35 35 35 36 36
18 18 19 19 19 20 21 22 23 24 25 25 25 25 25 26 26 26 26 26 25 25 26 26 26 26 27 27 28 28 28 29 29 30 31 32 34 34 35 35 36 36 37
18 19 20 20 21 21 21 22 24 24 25 25 25 26 26 26 25 25 26 27 27 26 27 27 26 26 26 27 27 27 28 28 29 29 30 31 32 32 33 35 35 35 36
19 20 21 22 22 22 23 23 24 25 25 25 25 25 25 25 25 26 27 27 27 27 27 27 27 27 27 27 27 27 27 28 28 28 30 30 30 31 32 33 33 34 34
21 22 22 22 23 24 24 25 25 25 25 25 24 24 24 24 25 25 25 25 26 26 26 27 27 27 27 27 27 28 28 27 28 28 28 28 29 29 30 30 31 31 31
23 23 23 24 24 24 25 25 25 25 25 24 24 24 24 24 24 24 24 24 24 24 25 26 26 26 26 26 26 26 27 27 27 27 26 27 27 28 28 29 29 29 30
24 24 25 25 25 24 24 24 24 24 24 23 23 22 22 22 22 22 22 22 22 23 24 24 24 24 24 24 25 25 25 24 24 25 25 25 25 26 27 27 27 27 28
25 25 25 25 25 24 24 23 22 22 22 22 21 20 20 19 19 19 19 19 20 20 21 22 23 23 23 23 23 22 22 22 22 23 24 24 24 25 25 25 25 25 26
24 25 25 24 24 23 22 21 20 20 20 20 19 18 17 16 16 16 16 16 17 18 19 19 20 21 22 22 22 22 21 22 22 22 22 22 23 23 23 23 23 23 23
24 24 24 23 22 21 20 19 19 18 17 16 16 15 15 15 15 14 14 14 15 16 17 18 18 19 19 19 19 19 20 21 21 21 21 21 21 22 22 22 22 21 22
23 23 22 21 20 19 18 17 16 15 14 14 13 12 13 13 13 13 13 14 13 13 14 15 16 16 17 17 17 18 19 20 20 20 20 20 21 20 20 20 21 21 22
21 20 20 19 18 17 15 14 13 12 12 11 11 10 10 11 11 10 11 11 11 10 11 11 12 14 14 15 16 17 17 17 17 18 19 19 19 18 18 19 19 19 20
19 18 17 16 14 13 12 11 10 10 10 9 9 9 9 8 8 8 8 9 8 8 9 9 10 11 11 12 13 13 14 14 14 15 15 16 15 16 16 16 17 17 17
17 15 14 12 11 10 9 9 9 8 8 7 7 6 7 7 7 6 6 6 7 7 7 7 8 9 9 9 10 11 10 11 11 12 13 13 14 13 14 14 14 14 15
14 12 11 10 8 7 6 6 6 5 5 4 4 3 3 3 3 4 4 5 5 5 5 4 5 6 6 7 7 8 9 9 10 10 11 12 12 12 12 12 13 13 13
11 10 9 8 7 6 6 5 5 4 4 3 3 3 3 3 3 3 3 3 2 2 2 2 3 4 4 4 5 5 6 7 8 9 9 9 9 10 10 11 11 11 11
9 8 7 6 5 5 5 5 5 5 4 4 4 4 3 3 3 3 4 3 3 2 2 2 2 2 2 3 3 4 5 6 7 7 7 7 8 8 8 8 8 8 8
8 7 6 6 6 6 6 6 6 6 6 5 5 5 5 5 5 5 5 5 4 4 4 4 4 4 3 3 3 4 4 4 4 4 5 5 6 6 6 6 6 6 6
Wind_Direction
276 278 278 277 276 276 276 277 275 273 272 274 273 271 269 267 267 267 267 268 267 263 260 260 257 253 252 253 254 252 250 248 248 247 249 251 252 250 249 249 251 252 254
278 279 279 277 274 274 276 278 277 274 273 273 273 273 269 268 266 269 268 267 266 264 263 259 256 253 253 252 250 251 251 249 249 250 250 250 251 251 250 250 251 251 254
283 281 280 277 274 274 275 277 277 275 275 275 274 274 270 271 270 268 267 264 264 263 265 262 256 254 252 250 248 251 252 250 250 251 252 251 251 250 251 250 251 251 255
283 281 279 277 275 274 274 274 275 276 278 277 275 272 271 271 270 268 266 264 264 264 264 263 260 256 254 251 249 251 254 253 252 252 252 252 252 253 253 252 253 255 255
281 279 278 277 276 274 274 274 275 276 277 278 275 272 270 270 270 269 267 266 263 263 262 262 261 258 256 253 251 249 250 252 251 251 251 252 252 252 253 254 254 256 258
282 280 279 277 276 274 273 274 277 278 278 277 276 273 270 270 269 269 268 265 265 265 264 263 261 260 255 252 250 249 249 252 253 252 251 252 252 251 253 255 256 257 260
285 283 279 278 277 274 273 274 277 278 278 277 275 272 269 268 268 266 267 267 266 265 264 263 260 258 256 251 249 250 250 252 252 251 251 250 250 253 254 256 257 258 259
284 285 280 280 279 277 276 276 278 279 279 280 277 273 270 267 268 267 267 265 264 264 264 262 261 258 255 251 250 250 250 252 252 251 250 250 251 253 256 256 257 258 259
287 287 285 284 282 281 280 280 280 282 281 281 278 276 272 270 269 267 266 266 265 263 262 261 260 257 254 250 251 252 252 253 251 249 249 251 251 253 255 256 257 258 260
293 290 288 289 288 286 284 283 282 282 282 281 279 276 273 274 271 267 265 264 263 262 261 262 258 255 254 255 254 255 253 254 252 250 251 252 253 254 256 258 259 260 262
296 294 291 291 292 290 286 284 284 284 282 280 280 279 277 276 273 269 265 263 261 260 260 260 258 257 256 255 253 254 255 255 253 251 251 252 254 255 256 257 259 261 262
297 296 295 292 291 289 288 286 285 284 283 282 280 280 278 277 275 271 269 266 262 259 258 258 256 255 255 253 253 253 254 254 253 254 254 254 256 257 259 259 260 262 263
302 299 296 294 293 291 289 287 284 283 284 282 280 279 279 277 275 271 269 266 262 259 258 255 254 253 254 254 253 253 253 254 254 256 256 256 257 259 259 260 261 262 264
303 301 297 295 294 292 291 289 287 285 283 282 280 280 279 276 273 272 270 267 262 259 256 254 254 253 254 254 254 254 254 254 255 257 259 259 260 261 262 263 262 263 266
304 301 298 296 294 292 292 290 289 287 284 282 280 277 277 275 272 271 270 266 261 257 254 253 253 253 254 255 256 255 256 256 258 259 261 261 262 262 263 263 262 264 267
303 301 299 297 295 293 292 290 289 287 284 281 279 277 276 275 271 271 271 266 262 259 256 254 254 256 257 257 257 256 257 258 258 259 260 261 261 263 264 264 264 266 268
303 302 300 298 295 294 292 289 287 287 285 282 278 276 276 273 270 272 271 268 265 261 257 256 254 255 256 255 255 256 258 258 259 259 260 261 261 263 265 267 268 269 269
304 303 302 299 297 295 292 289 289 288 287 284 279 278 275 272 272 272 271 271 268 262 259 255 252 253 254 254 254 255 257 257 258 259 259 262 265 267 268 268 269 270 271
305 304 303 301 299 296 293 291 290 288 287 284 279 277 277 275 273 272 271 272 270 266 262 255 252 253 256 256 257 258 258 257 259 260 260 263 266 267 266 267 269 270 271
308 308 307 305 302 299 296 291 289 289 289 286 280 279 280 277 275 272 273 271 269 265 261 258 258 257 260 257 256 258 259 259 261 262 263 264 266 268 269 271 272 273 275
314 314 313 311 307 304 300 296 294 295 293 287 281 277 278 281 280 277 275 272 270 271 266 263 262 262 266 264 261 264 266 264 263 265 266 267 270 273 273 275 276 278 279
318 319 320 322 319 314 310 307 302 302 299 292 289 283 282 281 279 278 278 277 279 277 267 264 267 273 277 275 273 270 267 265 266 268 270 270 271 273 276 277 281 284 284
323 326 329 332 334 334 333 329 324 321 320 315 304 296 300 299 301 301 299 300 292 285 275 268 278 283 286 285 282 275 269 270 272 273 273 273 273 275 281 286 287 287 285
334 338 341 342 345 351 358 1 1 360 3 8 5 3 4 356 349 343 337 337 324 318 307 301 304 302 297 288 286 282 281 280 281 282 281 281 283 286 288 290 291 289 288
346 349 353 358 5 14 17 19 23 26 30 32 33 37 41 28 23 24 20 18 18 22 18 15 9 4 352 334 326 323 313 304 295 290 291 293 297 299 296 296 296 293 291
358 6 19 28 32 34 35 37 39 42 45 49 48 51 51 48 44 38 33 37 45 48 45 41 39 35 25 15 3 352 347 340 334 326 318 313 311 311 311 307 305 302 298
Height
5818 5817 5817 5816 5816 5816 5815 5815 5814 5814 5814 5814 5814 5815 5815 5816 5816 5816 5817 5818 5818 5819 5820 5821 5822 5823 5825 5827 5829 5830 5832 5833 5835 5837 5838 5840 5841 5843 5844 5845 5847 5848 5849
5812 5812 5811 5810 5810 5810 5809 5809 5808 5808 5807 5807 5807 5808 5808 5809 5809 5810 5810 5811 5812 5813 5813 5814 5815 5817 5819 5820 5822 5824 5825 5827 5829 5830 5831 5833 5835 5836 5838 5839 5840 5841 5842
5806 5805 5805 5804 5803 5803 5803 5802 5802 5802 5801 5800 5801 5801 5801 5802 5803 5803 5803 5804 5805 5806 5806 5807 5808 5810 5811 5813 5815 5817 5818 5820 5822 5823 5825 5826 5828 5829 5831 5832 5833 5834 5835
5801 5799 5799 5798 5797 5797 5797 5796 5796 5796 5795 5794 5794 5794 5794 5795 5796 5796 5797 5797 5798 5798 5799 5800 5801 5803 5804 5806 5808 5810 5811 5812 5814 5816 5817 5819 5821 5822 5824 5825 5826 5827 5827
5795 5793 5792 5791 5791 5790 5790 5790 5790 5790 5789 5789 5788 5788 5788 5788 5789 5789 5789 5790 5791 5792 5792 5793 5794 5796 5797 5799 5800 5802 5804 5805 5807 5808 5810 5811 5813 5815 5816 5817 5818 5819 5820
5789 5787 5786 5785 5784 5784 5784 5784 5784 5783 5783 5782 5781 5781 5781 5782 5782 5782 5782 5783 5784 5785 5786 5786 5787 5788 5789 5791 5793 5794 5796 5798 5799 5801 5802 5804 5805 5807 5808 5809 5810 5811 5812
5783 5782 5780 5779 5778 5778 5777 5777 5777 5777 5776 5775 5775 5774 5775 5775 5776 5776 5776 5776 5777 5777 5778 5779 5780 5781 5782 5783 5785 5787 5788 5790 5791 5793 5794 5796 5798 5799 5800 5801 5802 5802 5803
5779 5777 5775 5774 5773 5772 5771 5771 5771 5770 5769 5768 5768 5767 5768 5768 5768 5768 5769 5769 5769 5770 5771 5771 5772 5773 5773 5775 5777 5778 5780 5782 5783 5784 5786 5787 5789 5790 5792 5793 5793 5794 5794
5774 5773 5771 5770 5768 5767 5766 5765 5765 5764 5763 5761 5761 5761 5761 5761 5760 5760 5761 5761 5762 5762 5763 5764 5765 5765 5766 5767 5769 5770 5772 5773 5775 5776 5777 5779 5780 5781 5782 5784 5785 5786 5786
5770 5768 5767 5765 5763 5762 5760 5759 5758 5757 5756 5755 5754 5753 5753 5753 5752 5753 5753 5754 5754 5755 5755 5756 5757 5758 5759 5760 5761 5762 5763 5765 5767 5768 5769 5770 5772 5772 5773 5774 5775 5776 5777
5766 5764 5762 5760 5758 5756 5754 5753 5752 5750 5749 5748 5747 5746 5745 5745 5744 5745 5745 5746 5746 5747 5747 5748 5749 5750 5751 5752 5753 5754 5756 5757 5758 5760 5761 5762 5763 5764 5765 5765 5766 5767 5767
5761 5759 5756 5754 5752 5750 5748 5747 5745 5743 5742 5741 5740 5739 5738 5737 5737 5737 5737 5737 5737 5738 5739 5740 5741 5743 5744 5745 5746 5747 5748 5750 5751 5752 5753 5754 5755 5755 5756 5757 5757 5757 5757
5756 5753 5751 5748 5746 5744 5742 5740 5738 5737 5735 5734 5732 5731 5731 5730 5730 5729 5729 5729 5730 5730 5731 5732 5733 5735 5736 5737 5739 5740 5741 5742 5743 5744 5745 5745 5746 5747 5747 5748 5748 5749 5749
5750 5747 5744 5742 5739 5737 5735 5733 5731 5730 5728 5727 5726 5725 5724 5723 5722 5722 5721 5721 5722 5723 5724 5725 5726 5727 5729 5730 5731 5732 5733 5734 5735 5736 5737 5737 5738 5739 5739 5740 5740 5740 5740
5744 5741 5738 5735 5733 5730 5728 5726 5724 5723 5721 5720 5719 5718 5717 5716 5715 5715 5714 5714 5715 5715 5716 5717 5719 5720 5721 5723 5724 5725 5726 5727 5728 5728 5729 5730 5731 5731 5732 5733 5733 5733 5733
5738 5735 5732 5729 5726 5724 5722 5720 5718 5716 5715 5713 5712 5711 5710 5709 5709 5709 5708 5708 5708 5709 5710 5711 5712 5713 5714 5716 5717 5718 5719 5720 5721 5722 5723 5723 5724 5725 5725 5725 5725 5725 5725
5732 5729 5726 5723 5720 5718 5715 5714 5712 5710 5709 5707 5706 5706 5705 5704 5704 5703 5703 5703 5703 5703 5704 5705 5706 5708 5709 5710 5711 5712 5713 5714 5715 5716 5717 5717 5718 5718 5718 5718 5718 5718 5718
5726 5723 5720 5717 5714 5712 5710 5708 5706 5705 5703 5702 5701 5701 5700 5700 5699 5699 5699 5698 5698 5698 5699 5700 5701 5702 5703 5704 5705 5706 5707 5708 5709 5710 5710 5711 5711 5712 5712 5712 5712 5712 5712
5721 5717 5714 5711 5709 5706 5704 5703 5701 5700 5699 5698 5697 5697 5696 5696 5695 5695 5695 5695 5695 5695 5695 5695 5696 5697 5698 5699 5700 5701 5702 5703 5703 5704 5705 5705 5706 5706 5706 5706 5706 5706 5706
5716 5712 5709 5706 5704 5702 5700 5699 5697 5696 5695 5694 5694 5693 5693 5692 5692 5692 5692 5692 5692 5692 5692 5692 5693 5693 5694 5695 5695 5697 5697 5698 5698 5699 5700 5700 5700 5700 5700 5701 5701 5701 5700
5712 5709 5705 5703 5700 5699 5697 5696 5695 5693 5692 5691 5691 5690 5690 5690 5690 5690 5689 5689 5689 5689 5689 5690 5690 5690 5691 5691 5692 5692 5693 5693 5694 5695 5695 5696 5696 5696 5696 5696 5696 5696 5695
5709 5706 5703 5700 5698 5696 5695 5694 5692 5691 5690 5689 5689 5688 5688 5688 5688 5688 5688 5688 5687 5687 5687 5688 5688 5688 5688 5689 5689 5689 5689 5690 5691 5691 5692 5692 5692 5692 5692 5692 5692 5691 5691
5706 5704 5701 5699 5697 5695 5694 5692 5691 5690 5689 5688 5688 5687 5687 5687 5687 5687 5687 5686 5686 5686 5686 5686 5686 5687 5687 5686 5687 5687 5687 5688 5688 5688 5689 5689 5689 5689 5689 5688 5688 5687 5687
5705 5702 5700 5698 5697 5695 5694 5692 5691 5690 5689 5688 5688 5687 5687 5687 5687 5686 5686 5686 5686 5686 5686 5686 5685 5685 5685 5685 5685 5685 5686 5686 5686 5686 5686 5686 5686 5685 5685 5685 5685 5684 5684
5704 5702 5700 5698 5697 5695 5694 5693 5692 5690 5689 5689 5688 5688 5688 5687 5687 5687 5686 5686 5686 5686 5686 5685 5685 5685 5685 5685 5684 5684 5684 5684 5684 5684 5684 5684 5683 5683 5683 5682 5682 5682 5681
5704 5702 5700 5699 5698 5696 5695 5694 5693 5691 5690 5690 5689 5689 5688 5688 5688 5687 5687 5687 5686 5686 5686 5685 5685 5685 5685 5684 5684 5684 5684 5683 5683 5683 5682 5682 5682 5681 5681 5681 5680 5680 5679